Long Point, Ontario

12:01 PM EDT on March 30, 2017 (GMT -0400)
Long Point

Weather History for CWPS - November, 2013

Change the Weather History Date:

Sunday, November 10, 2013

  Actual Average (KERI) Record (KERI)
Temperature  
Mean Temperature 46 °F 45 °F  
Max Temperature 52 °F 52 °F 68 °F (1939)
Min Temperature 40 °F 38 °F 22 °F (1991)
Degree Days  
Heating Degree Days 19 20  
Month to date heating degree days 182  
Since 1 July heating degree days 685  
Cooling Degree Days 0 0  
Month to date cooling degree days 0  
Year to date cooling degree days 638  
Moisture  
Dew Point 33 °F    
Average Humidity 61    
Maximum Humidity 74    
Minimum Humidity 44    
Precipitation  
Precipitation 0.00 in 0.13 in 0.92 in (2008)
Month to date precipitation 1.29  
Year to date precipitation 35.78  
Snow  
Snow - 0.20 in - ()
Month to date snowfall 1.6  
Since 1 July snowfall 1.8  
Since 1 September snowfall 1.8  
Snow Depth -    
Sea Level Pressure  
Sea Level Pressure 29.99 in    
Wind  
Wind Speed 20 mph ()    
Max Wind Speed 34 mph    
Max Gust Speed 45 mph    
T = Trace of Precipitation, MM = Missing Value Source: Averaged Metar Reports

Daily Weather History Graph

Daily Weather History Graph

Search for Another Location

Airport or City:

Trip Planner

Search our weather history database for the weather conditions in past years. The results will help you decide how hot, cold, wet, or windy it might be!

Date:

Astronomy

Nov. 10, 2013 Rise Set
Actual Time 7:05 AM EST 5:02 PM EST
Civil Twilight 6:35 AM EST 5:32 PM EST
Nautical Twilight 6:01 AM EST 6:06 PM EST
Astronomical Twilight 5:28 AM EST 6:39 PM EST
Moon 1:15 PM EST (11/10) No Moon Set
Length of Visible Light 10h 56m
Length of Day
9h 56m
First Quarter, 55% of the Moon is Illuminated
Nov 10
First Quarter
Nov 17
Full
Nov 25
Last Quarter
Dec 2
New
Dec 9
First Quarter

Hourly Weather History & Observations

Time (EST) Temp. Windchill Dew Point Humidity Pressure Visibility Wind Dir Wind Speed Gust Speed Precip Events Conditions
12:00 AM 52.2 °F - 42.8 °F 70% 29.81 in - SW 20.7 mph - N/A   Unknown
1:00 AM 49 °F - 39 °F 60% 29.83 in - WSW 25.3 mph - -  
1:00 AM 49.1 °F - 39.4 °F 69% 29.83 in - WSW 25.3 mph - N/A   Unknown
2:00 AM 47.7 °F - 39.4 °F 73% 29.83 in - WSW 19.6 mph - N/A   Unknown
3:00 AM 46.8 °F - 38.8 °F 74% 29.84 in - WSW 16.1 mph - N/A   Unknown
4:00 AM 47.3 °F - 34.5 °F 61% 29.83 in - WSW 25.3 mph 31.1 mph N/A   Unknown
5:00 AM 45.7 °F 38.8 °F 31.1 °F 57% 29.84 in - SW 16.1 mph 24.2 mph N/A   Unknown
6:00 AM 45.1 °F 37.1 °F 30.6 °F 57% 29.87 in - WSW 20.7 mph - N/A   Unknown
7:00 AM 44 °F - 29 °F 44% 29.87 in - SW 17.3 mph - -  
7:00 AM 44.1 °F 36.5 °F 29.3 °F 56% 29.87 in - SW 17.3 mph 24.2 mph N/A   Unknown
8:00 AM 43.7 °F 35.4 °F 29.7 °F 58% 29.90 in - SW 19.6 mph 27.6 mph N/A   Unknown
9:00 AM 43.9 °F 34.7 °F 31.5 °F 62% 29.92 in - SW 24.2 mph 33.4 mph N/A   Unknown
10:00 AM 44.1 °F 33.3 °F 31.6 °F 62% 29.94 in - WSW 34.5 mph 44.9 mph N/A   Unknown
11:00 AM 43.9 °F 33.6 °F 31.6 °F 62% 29.96 in - WSW 31.1 mph 41.4 mph N/A   Unknown
12:00 PM 44.8 °F 34.6 °F 30.4 °F 57% 29.98 in - SW 32.2 mph 39.1 mph N/A   Unknown
1:00 PM 45 °F - 31 °F 46% 29.99 in - SW 27.6 mph - -  
1:00 PM 45.0 °F 35.6 °F 30.9 °F 58% 29.99 in - SW 27.6 mph 38.0 mph N/A   Unknown
2:00 PM 45.1 °F 35.8 °F 31.3 °F 58% 30.01 in - SW 27.6 mph 41.4 mph N/A   Unknown
3:00 PM 43.2 °F 32.6 °F 34.5 °F 72% 30.05 in - WSW 31.1 mph 36.8 mph N/A   Unknown
4:00 PM 43.7 °F 34.7 °F 33.1 °F 66% 30.09 in - WSW 23.0 mph - N/A   Unknown
5:00 PM 43.7 °F 32.8 °F 30.2 °F 59% 30.13 in - WSW 34.5 mph - N/A   Unknown
6:00 PM 43.2 °F 33.6 °F 31.1 °F 62% 30.15 in - WSW 25.3 mph 33.4 mph N/A   Unknown
7:00 PM 43 °F - 31 °F 52% 30.18 in - SW 12.7 mph - -  
7:00 PM 42.8 °F 36.2 °F 31.3 °F 64% 30.18 in - SW 12.7 mph - N/A   Unknown
8:00 PM 42.3 °F 35.1 °F 31.5 °F 66% 30.19 in - SW 13.8 mph 20.7 mph N/A   Unknown
9:00 PM 41.2 °F 34.5 °F 30.0 °F 65% 30.21 in - SW 11.5 mph - N/A   Unknown
10:00 PM 40.8 °F 35.0 °F 29.1 °F 63% 30.21 in - SW 9.2 mph - N/A   Unknown
11:00 PM 40.8 °F 33.7 °F 30.2 °F 66% 30.22 in - SW 12.7 mph - N/A   Unknown